Stations météo

réclame
Mon MeteoGroup
Stornoway, Grande-Bretagne (3026): Température de l'air & dewpoint: 11.10.2018 19:00:00 - 17.10.2018 19:00:00 (BST)Stornoway, Grande-Bretagne (3026): Température de l'air -20cm & Température de l'air -100cm: 11.10.2018 19:00:00 - 17.10.2018 19:00:00 (BST)Stornoway, Grande-Bretagne (3026): Vitesse du vent & gusts: 11.10.2018 19:00:00 - 17.10.2018 19:00:00 (BST)Stornoway, Grande-Bretagne (3026): Direction du vent: 11.10.2018 19:00:00 - 17.10.2018 19:00:00 (BST)Stornoway, Grande-Bretagne (3026): reduced air pressure: 11.10.2018 19:00:00 - 17.10.2018 19:00:00 (BST)Stornoway, Grande-Bretagne (3026): visibility: 11.10.2018 19:00:00 - 17.10.2018 19:00:00 (BST)Stornoway, Grande-Bretagne (3026): Ensoleillement: 11.10.2018 19:00:00 - 17.10.2018 19:00:00 (BST)Stornoway, Grande-Bretagne (3026): Quantités de précipitations: 11.10.2018 19:00:00 - 17.10.2018 19:00:00 (BST)
Date & Time tt [°C] td [°C] tt -20cm [°C] tt -100cm [°C] ff [km/h] ff [knt] fx [km/h] fx [knt] dd ppp [hPa] vv [km] sd [min] rr [mm]
17.10.2018 19:00:00 7,8 5,9 - - 18 10 - - WSW 1020,2 30 0 0,0
17.10.2018 18:00:00 8,1 5,5 - - 16 9 - - WSW 1019,1 26 18 0,6
17.10.2018 17:00:00 9,5 5,9 - - 18 10 - - WSW 1018,3 30 48 0,0
17.10.2018 16:00:00 10,0 7,4 - - 26 14 46 25 W 1018,0 5 36 0,0
17.10.2018 15:00:00 10,1 5,0 - - 26 14 46 25 W 1017,2 40 30 0,0
17.10.2018 14:00:00 9,9 5,5 - - 31 17 50 27 W 1015,9 30 36 0,2
17.10.2018 13:00:00 10,1 6,9 - - 24 13 - - WSW 1015,4 22 36 0,0
17.10.2018 12:00:00 9,1 6,0 - - 31 17 46 25 WSW 1014,5 29 36 0,0
17.10.2018 11:00:00 9,1 6,2 - - 21 11 - - SW 1013,5 26 36 0,2
17.10.2018 10:00:00 8,9 6,3 10,4 10,7 18 10 - - WSW 1012,7 29 30 0,0
17.10.2018 09:00:00 7,3 5,3 - - 21 11 - - SW 1011,4 23 6 0,0
17.10.2018 08:00:00 7,5 4,9 - - 26 14 - - SW 1010,4 30 0 0,0
17.10.2018 07:00:00 6,3 4,0 - - 16 9 - - WSW 1009,1 21 0 0,0
17.10.2018 06:00:00 7,2 4,3 - - 22 12 - - WSW 1008,2 23 0 0,0
17.10.2018 05:00:00 7,1 4,9 - - 22 12 - - WSW 1007,3 23 0 0,2
17.10.2018 04:00:00 7,8 5,3 - - 18 10 - - WSW 1007,0 21 0 0,2
17.10.2018 03:00:00 7,6 5,3 - - 18 10 - - SW 1006,2 29 0 0,0
17.10.2018 02:00:00 8,2 6,1 - - 16 9 - - SW 1005,5 13 0 0,0
17.10.2018 01:00:00 9,1 6,7 - - 22 12 - - SW 1005,2 10 - 0,2
17.10.2018 00:00:00 8,3 6,5 - - 18 10 - - SW 1004,3 40 0 0,0
16.10.2018 23:00:00 10,2 7,2 - - 22 12 - - SSW 1003,7 12 0 0,0
16.10.2018 22:00:00 10,5 7,3 - - 21 11 - - SSW 1002,8 17 0 0,0
16.10.2018 21:00:00 10,4 8,5 - - 21 11 - - SSW 1002,6 12 0 0,0
16.10.2018 20:00:00 10,2 7,6 - - 24 13 - - SW 1001,9 16 0 0,0
16.10.2018 19:00:00 10,5 7,5 - - 34 18 48 26 WSW 1001,4 22 0 0,0
16.10.2018 18:00:00 11,0 7,9 - - 34 18 46 25 SW 1000,3 16 36 0,0
16.10.2018 17:00:00 11,9 9,0 - - 35 19 57 31 SW 999,9 13 54 0,0
16.10.2018 16:00:00 11,9 11,1 - - 42 23 81 44 SW 999,8 6 6 2,8
16.10.2018 15:00:00 12,9 9,8 - - 50 27 74 40 SSW 998,8 6 6 0,2
16.10.2018 14:00:00 12,8 10,0 - - 44 24 72 39 SSW 998,9 13 6 0,0
16.10.2018 13:00:00 12,4 11,0 - - 50 27 80 43 SSW 998,7 13 6 0,2
16.10.2018 12:00:00 11,2 10,3 - - 55 30 80 43 S 998,4 3,7 0 0,0
16.10.2018 11:00:00 10,8 8,9 - - 57 31 85 46 S 998,8 6 0 0,2
16.10.2018 10:00:00 10,4 7,1 10,4 10,7 61 33 93 50 S 999,4 8 0 0,0
16.10.2018 09:00:00 11,6 5,3 - - 61 33 83 45 S 1000,0 15 0 0,0
16.10.2018 08:00:00 11,5 7,9 - - 48 26 68 37 S 1000,2 10 0 0,0
16.10.2018 07:00:00 11,3 7,5 - - 44 24 65 35 SSE 1001,4 18 0 0,0
16.10.2018 06:00:00 11,3 7,3 - - 39 21 57 31 S 1002,8 18 0 0,0
16.10.2018 05:00:00 11,1 6,4 - - 39 21 63 34 S 1003,8 26 0 0,0
16.10.2018 04:00:00 11,1 5,0 - - 42 23 61 33 S 1004,9 30 0 0,0
16.10.2018 03:00:00 10,7 5,3 - - 35 19 63 34 S 1006,4 35 0 0,0
16.10.2018 02:00:00 10,7 6,3 - - 34 18 72 39 S 1008,0 30 0 0,2
16.10.2018 01:00:00 11,3 6,4 - - 35 19 55 30 S 1009,0 30 - 0,0
16.10.2018 00:00:00 11,3 7,6 - - 37 20 50 27 S 1009,5 30 0 0,0
15.10.2018 23:00:00 11,4 7,6 - - 34 18 48 26 S 1010,3 40 0 0,0
15.10.2018 22:00:00 11,3 8,4 - - 31 17 - - S 1011,2 30 0 0,0
15.10.2018 21:00:00 11,4 8,1 - - 26 14 - - SSW 1011,7 30 0 0,0
15.10.2018 20:00:00 11,3 8,8 - - 22 12 - - SSW 1011,8 24 0 0,0
15.10.2018 19:00:00 11,0 8,6 - - 18 10 - - SSW 1011,8 30 0 0,0
15.10.2018 18:00:00 11,4 8,4 - - 22 12 - - SSW 1011,8 14 0 0,0
15.10.2018 17:00:00 11,3 6,9 - - 21 11 - - SSW 1011,4 45 48 0,0
15.10.2018 16:00:00 12,3 6,9 - - 21 11 - - SSW 1012,1 35 42 0,0
15.10.2018 15:00:00 12,5 5,1 - - 28 15 - - SW 1011,9 45 60 0,0
15.10.2018 14:00:00 12,6 6,2 - - 29 16 - - SW 1012,1 35 54 0,0
15.10.2018 13:00:00 12,4 7,1 - - 28 15 - - SW 1011,9 30 60 0,0
15.10.2018 12:00:00 11,9 8,7 - - 24 13 - - SW 1011,9 35 48 0,2
15.10.2018 11:00:00 10,8 8,4 - - 21 11 - - SW 1011,7 45 30 0,0
15.10.2018 10:00:00 9,1 7,3 10,4 10,7 18 10 - - SW 1011,1 30 6 0,0
15.10.2018 09:00:00 9,4 8,0 - - 21 11 - - SW 1010,8 26 0 0,0
15.10.2018 08:00:00 9,3 7,9 - - 24 13 - - SW 1010,1 28 0 0,8
15.10.2018 07:00:00 9,7 7,9 - - 26 14 - - SSW 1009,9 40 0 0,0
15.10.2018 06:00:00 9,0 7,7 - - 18 10 - - SSW 1009,6 9 0 0,6
15.10.2018 05:00:00 9,1 7,4 - - 26 14 - - SW 1009,1 19 0 0,6
15.10.2018 04:00:00 9,7 7,5 - - 28 15 - - SSW 1009,1 11 0 0,0
15.10.2018 03:00:00 10,0 7,3 - - 26 14 - - SSW 1009,3 27 0 0,0
15.10.2018 02:00:00 10,2 7,7 - - 24 13 - - SSW 1009,0 17 0 0,0
15.10.2018 01:00:00 9,3 7,3 - - 21 11 - - SSW 1009,0 35 - 0,4
15.10.2018 00:00:00 9,5 7,2 - - 22 12 - - SSW 1008,8 28 0 0,0
14.10.2018 23:00:00 9,2 6,3 - - 16 9 - - SSW 1008,5 30 0 0,0
14.10.2018 22:00:00 9,4 6,6 - - 16 9 - - SSW 1008,7 30 0 0,0
14.10.2018 21:00:00 8,6 5,8 - - 16 9 - - SSW 1008,1 35 0 0,0
14.10.2018 20:00:00 8,5 5,7 - - 16 9 - - SSW 1007,7 40 0 0,0
14.10.2018 19:00:00 8,6 5,6 - - 26 14 46 25 SSW 1007,3 35 0 0,0
14.10.2018 18:00:00 9,2 6,0 - - 21 11 - - SSW 1006,4 40 30 0,0
14.10.2018 17:00:00 10,3 6,6 - - 24 13 48 26 SSW 1006,2 40 54 0,0
14.10.2018 16:00:00 10,6 6,1 - - 29 16 46 25 SW 1006,0 30 30 0,0
14.10.2018 15:00:00 11,0 6,5 - - 26 14 - - SSW 1005,8 35 42 0,4
14.10.2018 14:00:00 9,8 6,4 - - 22 12 - - SW 1005,4 45 30 0,4
14.10.2018 13:00:00 11,8 6,5 - - 24 13 - - SSW 1005,6 22 54 0,0
14.10.2018 12:00:00 10,9 5,9 - - 22 12 - - SSW 1005,8 35 60 0,0
14.10.2018 11:00:00 10,1 6,4 - - 18 10 - - SSW 1005,7 35 60 0,0
14.10.2018 10:00:00 7,9 6,7 10,7 10,7 11 6 - - SSW 1005,3 35 12 0,0
14.10.2018 09:00:00 5,5 4,5 - - 8 4 - - W 1004,3 40 0 0,0
14.10.2018 08:00:00 6,9 6,1 - - 13 7 - - S 1004,0 35 0 0,2
14.10.2018 07:00:00 6,5 5,4 - - 9 5 - - SSW 1003,6 30 0 0,0
14.10.2018 06:00:00 7,1 6,1 - - 11 6 - - WSW 1003,0 45 0 0,4
14.10.2018 05:00:00 7,1 6,5 - - 11 6 - - SSW 1002,1 50 0 0,0
14.10.2018 04:00:00 7,2 6,5 - - 8 4 - - SW 1001,7 13 0 3,4
14.10.2018 03:00:00 7,4 6,7 - - 13 7 - - WSW 1001,3 11 0 0,0
14.10.2018 02:00:00 7,1 6,4 - - 8 4 - - SW 1000,4 19 0 0,0
14.10.2018 01:00:00 7,3 6,5 - - 8 4 - - W 999,6 30 - 0,2
14.10.2018 00:00:00 7,9 6,5 - - 15 8 - - NNE 999,1 35 0 0,8
13.10.2018 23:00:00 7,7 6,7 - - 16 9 - - NW 999,0 9 0 1,0
13.10.2018 22:00:00 8,4 7,0 - - 21 11 - - N 998,4 10 0 0,6
13.10.2018 21:00:00 8,7 7,9 - - 15 8 - - N 998,2 10 0 1,2
13.10.2018 20:00:00 8,9 8,0 - - 16 9 - - NNE 998,3 9 0 1,4
13.10.2018 19:00:00 8,9 7,6 - - 21 11 - - NNE 998,0 11 0 1,0
13.10.2018 18:00:00 9,0 7,6 - - 15 8 - - NE 997,9 9 0 0,8
13.10.2018 17:00:00 8,9 7,1 - - 16 9 - - NE 998,1 11 0 1,2
13.10.2018 16:00:00 9,3 7,9 - - 9 5 - - E 998,5 9 0 1,0
13.10.2018 15:00:00 10,7 9,1 - - 15 8 - - ESE 998,9 12 0 0,0
13.10.2018 14:00:00 11,1 7,5 - - 9 5 - - E 999,0 15 0 0,0
13.10.2018 13:00:00 11,2 7,6 - - 2 1 - - ENE 999,7 14 0 0,0
13.10.2018 12:00:00 11,1 7,5 - - 4 2 - - SSE 1000,2 15 0 0,0
13.10.2018 11:00:00 10,7 7,2 - - 11 6 - - SW 1000,1 17 0 0,0
13.10.2018 10:00:00 10,1 6,5 10,9 10,7 5 3 - - W 999,8 14 0 0,0
13.10.2018 09:00:00 9,9 7,0 - - 15 8 - - SSW 999,7 13 0 0,0
13.10.2018 08:00:00 9,4 6,4 - - 16 9 - - WSW 998,9 14 0 0,0
13.10.2018 07:00:00 9,2 6,3 - - 16 9 - - SW 997,8 14 0 0,0
13.10.2018 06:00:00 9,7 6,3 - - 26 14 50 27 SSW 996,9 15 0 0,0
13.10.2018 05:00:00 10,1 6,9 - - 35 19 50 27 SW 995,8 16 0 0,0
13.10.2018 04:00:00 10,6 7,1 - - 39 21 63 34 SW 994,9 14 0 0,0
13.10.2018 03:00:00 10,7 7,6 - - 42 23 76 41 SW 992,9 13 0 0,0
13.10.2018 02:00:00 11,2 7,4 - - 52 28 76 41 SW 991,1 15 0 0,0
13.10.2018 01:00:00 10,9 8,1 - - 57 31 81 44 SW 988,6 11 - 0,0
13.10.2018 00:00:00 11,1 8,4 - - 54 29 83 45 SW 986,2 16 0 0,6
12.10.2018 23:00:00 11,9 9,3 - - 57 31 93 50 SSW 983,7 10 0 0,0
12.10.2018 22:00:00 11,6 10,2 - - 63 34 107 58 SSW 981,9 3,7 0 1,6
12.10.2018 21:00:00 12,9 9,1 - - 68 37 104 56 SSW 980,7 8 0 0,0
12.10.2018 20:00:00 13,1 9,0 - - 63 34 96 52 S 980,2 8 0 0,0
12.10.2018 19:00:00 13,8 8,4 - - 65 35 98 53 S 980,1 10 0 0,0
12.10.2018 18:00:00 14,2 8,4 - - 50 27 83 45 S 980,2 13 12 0,0
12.10.2018 17:00:00 14,8 7,8 - - 61 33 87 47 S 980,4 11 18 0,0
12.10.2018 16:00:00 15,1 8,4 - - 57 31 87 47 S 981,1 10 24 0,0
12.10.2018 15:00:00 14,8 7,8 - - 57 31 89 48 S 981,7 10 6 0,0
12.10.2018 14:00:00 15,2 7,5 - - 61 33 93 50 S 982,4 10 18 0,0
12.10.2018 13:00:00 14,3 7,8 - - 61 33 89 48 S 982,3 9 60 0,0
12.10.2018 12:00:00 14,1 8,6 - - 54 29 76 41 S 983,1 9 36 0,0
12.10.2018 11:00:00 12,9 8,9 - - 44 24 76 41 S 982,2 10 48 0,2
12.10.2018 10:00:00 11,4 9,6 10,9 10,7 48 26 68 37 SSE 982,0 3,5 0 2,0
12.10.2018 09:00:00 11,3 7,9 - - 35 19 52 28 SE 982,5 35 0 0,2
12.10.2018 08:00:00 10,0 8,5 - - 34 18 52 28 ESE 984,3 7 0 3,6
12.10.2018 07:00:00 10,2 7,9 - - 37 20 46 25 ESE 986,9 11 0 0,8
12.10.2018 06:00:00 10,8 7,4 - - 29 16 - - ESE 989,1 35 0 0,0
12.10.2018 05:00:00 10,8 8,1 - - 31 17 - - ESE 990,8 35 0 0,0
12.10.2018 04:00:00 10,8 8,6 - - 29 16 - - ESE 992,2 35 0 0,0
12.10.2018 03:00:00 11,3 9,3 - - 24 13 - - SSE 994,4 30 0 0,0
12.10.2018 02:00:00 11,1 9,3 - - 24 13 - - S 995,6 30 0 0,0
12.10.2018 01:00:00 11,3 9,1 - - 22 12 81 44 S 996,0 21 - 0,0
12.10.2018 00:00:00 11,0 9,2 - - 24 13 - - SSW 996,3 18 0 0,0
11.10.2018 23:00:00 11,1 9,5 - - 24 13 - - SSW 996,5 15 0 0,2
11.10.2018 22:00:00 11,1 10,1 - - 24 13 - - SSW 996,0 14 0 0,0
11.10.2018 21:00:00 10,9 9,0 - - 22 12 - - SSW 995,1 20 0 0,0
11.10.2018 20:00:00 10,7 9,2 - - 21 11 - - SSW 993,7 45 0 0,2
11.10.2018 19:00:00 11,2 10,1 - - 22 12 - - WSW 992,5 12 0 6,2

tt = Température de l'air
td = dewpoint
tt -20cm = Température de l'air -20cm
tt -100cm = Température de l'air -100cm
ff = Vitesse du vent
fx = gusts
dd = Direction du vent
ppp = reduced air pressure
vv = visibility
sd = Ensoleillement
rr = Quantités de précipitations

stations d'obs. à proximité